CST,Max TemperatureF,Mean TemperatureF,Min TemperatureF,Max Dew PointF,MeanDew PointF,Min DewpointF,Max Humidity, Mean Humidity, Min Humidity, Max Sea Level PressureIn, Mean Sea Level PressureIn, Min Sea Level PressureIn, Max VisibilityMiles, Mean VisibilityMiles, Min VisibilityMiles, Max Wind SpeedMPH, Mean Wind SpeedMPH, Max Gust SpeedMPH,PrecipitationIn, CloudCover, Events, WindDirDegrees
2013-12-1,60,40,20,29,24,17,89,63,31,30.19,30.05,29.84,10,10,10,10,6,,0.00,1,,261
2013-12-2,66,50,33,31,26,23,66,48,23,29.82,29.66,29.54,10,10,10,14,8,,0.00,1,,258
2013-12-3,48,36,23,31,25,15,85,69,55,29.81,29.62,29.52,10,10,8,24,11,46,0.00,4,,6
2013-12-4,23,17,10,16,5,-2,93,62,42,30.29,29.95,29.76,10,9,4,29,20,37,0.00,7,,334
2013-12-5,16,8,-1,-3,-6,-7,75,53,37,30.50,30.41,30.30,10,10,10,16,9,,0.00,3,,352
2013-12-6,14,5,-4,-6,-9,-11,69,56,41,30.73,30.62,30.51,10,10,10,8,5,,0.00,2,,44
2013-12-7,10,3,-4,4,-3,-12,83,69,48,30.73,30.46,30.12,10,7,2,17,10,22,T,6,Snow,116
2013-12-8,13,5,-3,9,3,-11,88,79,68,30.35,30.08,29.92,10,4,0,14,9,,T,7,Snow,45
2013-12-9,19,5,-10,6,-3,-14,79,68,52,30.46,30.36,30.25,10,10,10,21,9,,0.00,1,,241
2013-12-10,35,21,7,20,10,-1,81,64,50,30.40,30.24,30.10,10,10,10,14,9,20,0.00,1,,259
2013-12-11,29,17,5,18,12,4,96,78,64,30.69,30.50,30.37,10,10,8,16,8,,0.00,2,,240
2013-12-12,46,28,10,26,17,8,88,71,44,30.43,30.28,30.06,10,10,10,13,8,,0.00,0,,242
2013-12-13,43,28,13,26,19,11,92,78,51,30.19,29.98,29.88,10,10,9,12,7,,0.00,1,,319
2013-12-14,48,33,17,28,20,14,88,68,37,30.32,30.25,30.20,10,10,8,16,9,,0.00,1,,285
2013-12-15,59,42,25,24,21,17,75,51,26,30.17,30.10,30.02,10,10,10,22,13,30,0.00,1,,263
2013-12-16,62,44,25,24,20,17,72,48,19,30.23,30.11,30.03,10,10,10,14,9,,0.00,0,,276
2013-12-17,52,37,21,23,20,17,82,57,32,30.42,30.27,30.07,10,10,10,13,7,,0.00,0,,237
2013-12-18,70,49,27,22,19,17,66,42,14,30.03,29.84,29.70,10,10,10,12,8,,0.00,0,,257
2013-12-19,40,27,14,27,20,7,88,72,60,30.04,29.81,29.69,10,9,5,26,12,32,T,4,Snow,26
2013-12-20,25,18,10,8,6,3,77,62,49,30.08,29.99,29.88,10,10,7,24,14,28,T,4,Snow,316
2013-12-21,35,21,7,15,10,4,84,68,42,29.99,29.85,29.75,10,10,10,10,6,,0.00,2,,346
2013-12-22,35,23,10,17,14,9,92,72,42,30.42,30.21,30.00,10,7,1,17,7,,T,5,Snow,30
2013-12-23,19,14,9,16,9,1,92,79,59,30.63,30.47,30.33,10,8,0,13,9,,0.03,5,Fog-Snow,78
2013-12-24,40,26,11,33,23,9,88,81,66,30.37,30.21,30.06,10,9,5,14,8,,0.00,3,,277
2013-12-25,44,34,21,26,21,17,92,64,33,30.46,30.38,30.23,10,10,10,17,11,,0.00,0,,275
2013-12-26,54,41,26,22,21,19,81,51,25,30.27,30.20,30.13,10,10,10,15,11,,0.00,0,,270
2013-12-27,61,40,19,24,21,15,85,57,23,30.33,30.24,30.10,10,10,10,14,7,,0.00,0,,251
2013-12-28,61,39,16,25,18,6,85,59,23,30.31,30.02,29.77,10,10,10,32,12,39,0.00,1,,312
2013-12-29,26,17,8,7,3,0,73,58,41,30.52,30.36,30.17,10,10,10,26,17,32,0.00,2,,314
2013-12-30,51,35,19,25,17,9,78,58,28,30.29,30.18,30.08,10,10,10,30,9,39,0.00,2,,284
2013-12-31,59,37,15,24,19,12,84,61,26,30.25,30.08,29.97,10,10,10,17,5,,0.00,0,,358